Theta_e
281 281 281 281 281 281 280 281 281 281 281 281 281 281 281 281 281 279 279 278 277 277 277 277 277 277 276 276 276 276 275 274 271 273 274 275 275 276 278 279 279 279 280
281 280 281 281 281 280 280 281 281 281 281 281 281 281 281 281 280 279 278 277 276 276 276 276 276 277 276 276 275 274 274 274 273 271 273 274 275 276 277 277 279 279 279
280 280 280 280 280 280 280 281 281 281 281 281 281 280 280 280 279 279 277 277 276 276 276 275 276 276 275 275 274 274 274 275 274 273 273 275 275 276 276 276 276 277 279
280 280 280 280 281 281 281 281 281 280 280 280 280 280 280 279 279 278 278 276 276 276 277 277 276 276 275 274 274 274 275 274 274 273 273 273 274 275 275 274 272 275 275
280 280 281 281 281 280 281 281 281 280 280 280 280 279 278 277 278 277 277 276 276 276 277 277 276 276 277 277 276 275 275 274 273 273 272 272 272 273 271 273 273 274 275
281 280 281 280 280 280 280 280 280 280 279 279 279 278 277 278 280 281 280 277 277 276 275 275 275 275 275 277 278 278 277 273 273 272 272 272 272 273 274 273 272 270 269
281 281 280 280 280 280 280 279 279 277 278 278 277 276 275 275 278 279 279 277 276 275 275 274 274 275 275 274 276 276 276 277 277 275 271 272 272 273 273 272 272 270 269
280 280 279 279 279 279 279 278 278 277 274 273 271 271 271 273 277 278 278 276 275 275 274 274 273 273 274 274 274 274 274 274 274 275 275 273 273 275 275 272 271 269 269
279 279 279 279 278 278 276 275 276 274 273 271 272 269 269 270 275 276 276 274 274 273 274 274 273 273 274 276 274 272 272 273 275 276 276 277 277 276 274 270 266 265 263
277 278 277 276 276 274 273 272 272 272 271 271 270 270 269 270 272 274 275 274 272 272 273 274 275 274 276 276 274 272 271 269 271 272 268 269 270 268 271 268 266 263 262
276 274 273 273 272 273 271 270 270 268 268 265 266 266 267 268 269 273 275 274 273 272 271 271 272 274 275 276 277 272 270 272 270 263 263 262 263 263 264 265 266 265 262
274 272 270 270 271 271 269 267 268 267 264 261 261 262 265 267 270 272 274 274 274 271 270 271 272 274 275 275 272 272 272 271 261 260 259 260 260 261 262 263 263 263 264
273 271 270 270 270 269 268 266 264 265 263 262 264 262 263 267 267 271 271 272 273 271 271 272 274 272 271 268 268 269 266 260 258 258 258 259 260 261 262 262 262 262 262
272 270 270 269 268 268 269 268 266 263 261 264 262 262 261 263 264 266 267 269 271 270 271 264 267 266 265 265 259 261 259 259 259 258 258 259 260 260 260 261 260 261 260
271 270 270 269 268 267 267 266 266 265 266 260 259 261 261 260 264 271 270 269 269 271 266 255 257 256 256 256 257 257 258 258 257 258 258 258 259 259 259 260 260 260 259
270 269 269 267 266 266 265 262 269 268 268 269 269 267 267 268 270 271 271 271 271 270 257 247 253 253 254 255 255 256 257 257 258 258 258 258 258 258 258 259 260 259 259
270 268 266 265 264 263 262 261 257 259 265 265 266 266 267 267 268 269 270 270 266 262 246 249 251 253 254 254 255 256 256 257 258 258 258 257 258 258 258 258 259 259 259
267 266 265 263 261 260 260 258 257 253 250 252 258 263 264 265 267 267 267 261 252 253 245 246 250 252 253 254 255 255 256 257 257 257 257 258 258 258 257 258 259 259 259
264 262 261 260 259 258 256 254 253 249 245 244 246 254 256 262 263 263 262 248 246 249 250 250 251 252 254 255 255 256 256 256 257 257 257 257 258 258 257 258 259 259 260
261 260 259 257 255 254 252 251 248 246 245 243 243 244 247 247 247 249 248 244 243 248 250 250 252 252 253 255 255 256 256 256 257 257 257 257 258 258 258 259 259 259 260
259 258 256 255 253 251 248 247 247 244 243 241 242 246 262 249 244 244 247 248 248 249 250 251 253 253 254 255 256 256 256 256 257 257 257 258 258 258 259 259 259 260 260
257 255 254 253 251 249 246 246 243 242 242 241 242 242 258 242 242 245 246 248 249 250 251 252 254 255 256 257 257 257 257 257 257 258 258 259 259 259 259 259 259 260 261
255 253 251 248 247 246 243 240 240 240 240 239 240 243 242 243 245 245 247 249 250 251 252 253 254 256 257 258 259 258 258 258 259 259 259 259 259 259 259 259 260 261 262
254 252 250 246 245 243 241 240 239 241 240 239 239 240 242 244 245 247 248 250 250 251 252 253 255 255 256 257 258 259 260 260 260 260 260 260 260 261 261 262 263 264 267
252 251 249 247 246 244 239 238 238 237 237 238 241 240 240 244 245 247 249 250 250 251 251 253 254 255 255 256 257 257 258 260 261 263 263 263 264 265 266 267 269 269 269
250 249 247 244 242 239 239 239 239 238 239 240 241 241 243 245 247 248 249 249 250 251 251 252 253 253 254 255 256 259 262 263 263 265 267 267 267 269 270 269 269 269 269
Wind_Speed
10 8 8 7 7 6 6 7 7 5 6 6 7 6 6 6 6 5 5 5 5 5 5 6 7 6 7 6 6 7 8 7 11 15 15 18 18 14 15 14 15 16 15
9 7 9 7 6 6 7 7 6 7 6 7 6 6 6 6 6 6 5 4 5 7 7 7 8 6 9 8 6 9 9 9 10 17 18 16 17 17 16 18 13 14 15
7 8 7 7 7 8 8 7 6 6 7 6 6 6 6 6 5 4 5 6 6 7 7 8 9 9 10 8 8 9 8 10 10 11 15 14 15 13 16 17 16 14 11
9 9 9 9 9 9 7 6 6 6 6 6 6 6 5 4 4 4 5 6 6 7 7 9 9 9 10 10 9 11 11 11 12 12 13 14 13 14 13 11 17 12 13
12 11 12 10 8 7 7 7 6 6 6 6 5 5 4 3 3 4 6 6 6 8 8 9 10 9 15 17 10 11 12 11 11 13 13 14 13 13 16 13 16 15 13
13 13 10 7 7 8 7 6 6 6 5 4 4 5 4 3 7 11 11 6 8 9 10 10 9 10 12 20 22 24 20 15 15 13 14 15 19 15 14 12 18 17 16
12 11 10 8 9 7 6 6 6 4 3 4 5 5 4 4 8 11 13 7 8 9 10 10 10 9 10 12 18 24 21 23 24 19 20 17 18 14 20 21 14 17 18
12 11 8 8 7 6 6 6 4 4 4 4 3 2 2 3 8 11 13 9 8 9 10 10 11 13 12 15 16 17 15 14 16 13 11 16 18 19 16 18 20 20 14
11 9 8 8 7 7 5 5 3 3 3 3 2 3 2 3 9 11 12 8 9 10 11 10 11 13 19 24 18 16 18 16 10 26 29 31 30 33 29 16 12 13 14
9 9 7 7 7 6 5 4 3 2 3 3 3 1 2 4 9 12 11 6 8 8 9 11 15 15 24 26 18 16 13 12 16 17 10 18 22 19 25 13 11 12 12
8 8 7 6 7 6 6 3 4 4 4 3 3 3 3 4 5 11 13 8 7 9 9 9 9 21 26 28 27 12 17 24 20 9 12 11 11 11 10 9 10 10 11
10 9 7 6 6 5 7 4 5 5 4 3 1 2 2 3 6 10 14 16 17 10 10 9 10 26 29 25 21 27 30 24 8 9 9 10 10 10 10 10 13 12 12
10 9 8 8 7 6 7 6 4 4 3 1 1 1 1 1 2 11 16 17 17 12 9 18 26 20 22 16 21 25 18 7 7 9 10 11 10 10 14 12 14 13 14
11 10 8 9 7 5 5 5 5 4 3 2 1 1 2 2 2 5 7 7 10 11 16 6 14 16 17 17 7 10 7 7 8 9 10 11 11 11 11 9 11 12 12
10 9 8 7 7 7 5 4 4 2 3 3 2 2 1 2 4 15 14 9 8 11 10 5 7 7 8 8 8 8 7 7 8 9 9 11 12 11 12 10 10 11 11
11 8 7 7 6 6 6 4 7 6 5 6 8 6 3 11 16 18 19 20 19 22 5 3 6 6 7 8 8 10 10 10 8 9 10 10 11 11 12 12 10 10 12
11 10 7 8 6 6 4 4 3 3 7 7 9 9 10 12 15 17 18 19 19 14 1 3 6 7 8 8 8 9 11 10 11 10 10 11 11 11 13 12 12 11 12
11 12 8 7 6 5 5 4 4 3 2 3 6 9 10 13 15 16 18 13 7 6 1 3 6 7 8 8 9 10 10 10 10 10 11 11 11 11 12 12 12 13 13
11 8 8 7 5 6 5 5 4 3 2 1 3 6 6 14 13 13 12 2 3 5 6 6 6 7 8 9 9 10 11 11 12 11 11 11 11 10 13 13 13 17 18
10 14 10 7 6 6 5 5 4 3 2 1 1 3 4 4 4 4 1 2 3 5 6 7 7 7 8 9 10 10 10 11 11 11 11 11 11 11 13 14 13 14 14
9 8 11 7 6 5 4 4 3 3 1 1 3 3 11 3 3 3 5 6 5 6 7 7 8 8 9 9 10 10 11 12 12 12 12 12 12 12 13 13 14 15 15
9 8 7 7 6 5 4 3 3 2 2 2 3 3 12 1 2 4 5 6 6 6 7 8 9 9 9 10 10 11 12 13 13 12 12 13 13 14 13 14 15 15 15
9 9 8 5 5 6 4 3 3 2 1 2 3 4 3 3 4 5 6 7 7 8 7 8 9 10 9 10 10 11 12 14 14 13 13 14 14 15 14 15 16 17 16
9 9 9 6 5 4 4 3 2 1 1 3 3 4 4 4 5 7 7 7 7 8 8 8 9 13 13 13 12 12 12 14 13 14 18 15 16 18 16 17 18 20 17
9 9 8 7 6 5 4 3 2 2 3 4 4 3 4 5 5 6 7 7 8 8 10 9 10 13 16 20 21 23 22 25 21 22 15 19 20 24 20 16 16 17 20
8 8 7 5 5 4 4 3 2 2 4 4 4 4 4 5 6 7 7 8 8 9 12 10 12 18 20 18 21 23 25 27 24 28 20 18 18 16 15 19 23 17 19
Wind_Direction
216 211 206 221 216 219 221 234 235 247 232 236 235 236 235 234 222 227 242 255 255 266 270 258 268 271 275 274 271 274 273 270 277 289 291 300 305 300 303 295 289 290 289
218 200 212 219 215 220 226 232 222 236 231 233 233 238 235 230 225 226 251 264 261 273 276 274 280 282 280 279 276 280 281 282 278 285 288 300 298 311 304 298 292 294 294
193 200 212 220 218 227 225 228 221 231 243 236 228 233 236 231 236 242 243 257 259 260 265 272 278 278 281 286 284 285 284 286 281 277 290 296 296 305 303 297 296 295 290
191 198 209 212 216 223 221 224 227 216 239 243 234 240 235 235 234 248 254 256 255 265 268 271 271 268 276 286 285 288 286 287 288 288 288 294 298 306 294 306 299 291 299
193 199 211 211 207 211 215 220 220 218 228 234 235 230 221 216 243 248 251 255 265 274 272 270 274 274 281 287 287 290 293 292 292 292 293 295 296 308 302 303 294 301 294
198 203 206 199 200 209 211 212 211 222 221 214 214 206 220 238 262 277 287 279 281 283 283 282 287 282 284 295 296 297 296 297 295 296 289 296 300 301 299 308 301 297 300
191 198 196 187 204 201 201 198 213 222 193 208 196 189 235 243 276 285 290 287 289 285 284 288 293 293 294 297 296 298 292 287 293 296 295 293 297 317 304 298 308 309 298
191 193 183 185 202 187 187 195 191 182 178 172 171 164 195 266 290 298 301 292 286 282 282 291 292 300 301 301 295 296 296 293 286 288 298 304 299 295 302 310 308 300 291
188 185 176 176 182 181 186 183 169 144 151 151 140 152 195 279 307 306 306 301 291 286 289 290 292 293 296 299 301 300 297 294 322 311 306 306 308 305 305 306 298 301 296
172 187 158 158 164 169 164 144 109 110 120 114 104 71 343 305 308 310 311 297 290 290 287 288 290 295 300 305 301 298 305 320 314 313 327 309 305 299 302 295 294 291 296
141 129 144 147 145 142 124 105 124 108 100 82 59 3 306 287 304 317 310 300 293 294 301 305 298 299 304 302 313 329 316 315 319 327 310 299 295 290 291 287 281 284 287
133 128 125 127 120 119 124 112 109 109 101 83 60 299 267 281 314 319 312 315 310 303 300 300 299 297 312 324 327 316 310 320 321 308 298 292 294 292 294 293 288 278 267
124 126 125 120 117 126 127 123 104 104 108 160 213 217 266 282 277 317 313 306 310 307 305 296 319 336 330 323 309 312 323 311 299 296 294 293 293 293 295 292 289 282 273
129 130 128 123 123 115 107 116 117 123 148 173 38 310 293 299 290 277 269 273 289 304 292 25 331 331 325 316 311 309 298 295 290 289 289 291 293 297 295 294 293 300 295
123 127 127 124 124 114 105 121 117 154 163 160 200 181 338 324 291 312 324 317 303 322 2 3 344 334 321 314 312 305 301 297 293 291 292 294 295 297 295 298 292 295 289
127 130 132 127 120 127 131 93 77 85 52 34 13 3 359 320 322 326 323 323 345 338 28 0 318 309 301 304 304 305 306 301 296 297 295 292 292 296 297 299 294 289 291
129 131 125 124 131 133 126 125 128 356 45 49 23 5 347 333 329 332 331 342 348 355 20 301 299 300 299 300 298 297 297 297 299 294 293 293 293 292 298 296 296 293 292
114 120 124 122 121 124 128 124 112 102 62 338 359 357 354 337 340 339 345 5 341 346 223 263 291 293 295 294 295 295 296 296 296 296 294 293 293 291 295 292 293 295 294
119 117 116 116 116 118 112 101 105 111 124 237 337 346 333 342 340 345 351 148 261 296 301 297 284 288 290 291 291 291 290 292 293 295 292 292 292 293 290 288 290 292 291
109 122 123 124 125 116 113 115 116 115 105 49 304 264 306 4 349 330 301 253 255 265 283 280 284 279 282 288 291 291 292 292 293 294 292 291 290 288 288 290 289 291 290
122 123 124 116 118 119 116 123 121 113 104 272 256 264 310 101 295 278 300 301 284 289 289 285 287 284 285 286 289 291 290 290 290 290 289 290 290 290 287 285 285 285 286
123 125 121 120 118 113 119 120 116 121 204 276 294 288 334 346 286 285 283 281 280 274 273 277 283 283 285 288 290 290 290 289 289 288 288 289 290 287 286 286 286 285 286
120 118 113 105 111 121 104 108 123 179 230 277 280 294 307 294 285 275 280 286 286 286 282 277 282 287 288 288 288 286 285 284 285 288 288 289 288 286 286 284 284 286 286
121 124 124 126 128 112 122 141 176 209 262 267 273 273 277 282 286 289 288 287 284 283 284 284 285 286 292 293 292 288 284 283 286 287 287 282 281 285 283 282 283 281 280
122 123 130 141 132 141 137 157 177 233 252 258 278 274 276 277 282 285 286 283 282 286 288 289 290 290 291 295 293 290 287 290 289 292 291 285 282 285 281 281 292 296 293
118 123 125 124 129 140 153 148 217 243 255 265 267 269 270 285 285 286 286 284 286 291 296 291 288 291 294 295 291 291 296 299 302 297 297 296 291 289 298 299 297 296 294